This demonstration page uses our WeatherBlox Daily Observations layout. Learn more.

Left ArrowRight Arrow

31.84235, -102.49876

Hourly Observations for July 14, 2022

Temp ( °F °C ) Dew Point ( °F °C ) Humidity (%) Winds ( mph kmh ) Pressure ( in mb ) Visibility ( mi km ) Precip ( " mm )
12:53 am 00:53 Clear 78 25.6 61 16.1 56 56 S 5 7 29.92 1013 10 16 0.00 0.00
1:53 am 01:53 Clear 76 24.4 64 17.8 67 67 WSW 5 7 29.93 1014 10 16 0.00 0.00
2:53 am 02:53 Clear 76 24.4 65 18.3 69 69 W 3 6 29.94 1014 10 16 0.00 0.00
3:53 am 03:53 Clear 75 23.9 64 17.8 69 69 W 3 6 29.94 1014 10 16 0.00 0.00
4:53 am 04:53 Clear 75 23.9 63 17.2 66 66 NNW 3 6 29.96 1014 10 16 0.00 0.00
5:53 am 05:53 Clear 72 22.2 63 17.2 73 73 NE 9 15 29.97 1015 10 16 0.00 0.00
6:53 am 06:53 Clear 72 22.2 62 16.7 71 71 ENE 7 11 30.00 1016 10 16 0.00 0.00
7:53 am 07:53 Sunny 76 24.4 63 17.2 64 64 ENE 5 7 30.02 1017 10 16 0.00 0.00
8:53 am 08:53 Sunny 80 26.7 63 17.2 56 56 E 5 7 30.02 1017 10 16 0.00 0.00
9:53 am 09:53 Sunny 84 28.9 62 16.7 48 48 S 6 9 30.02 1017 10 16 0.00 0.00
10:53 am 10:53 Sunny 88 31.1 62 16.7 42 42 SW 8 13 30.01 1016 10 16 0.00 0.00
11:53 am 11:53 Sunny 92 33.3 60 15.6 34 34 SSW 8 13 30.01 1016 10 16 0.00 0.00
12:53 pm 12:53 Sunny 94 34.4 60 15.6 32 32 SE 9 15 30.00 1016 10 16 0.00 0.00
1:53 pm 13:53 Sunny 95 35 59 15 30 30 S 6 9 29.98 1015 10 16 0.00 0.00
2:53 pm 14:53 Sunny 97 36.1 58 14.4 27 27 S 12 19 29.95 1014 10 16 0.00 0.00
3:53 pm 15:53 Mostly Sunny 98 36.7 58 14.4 26 26 undefined N/A 29.92 1013 10 16 0.00 0.00
4:53 pm 16:53 Sunny 98 36.7 57 13.9 25 25 undefined N/A 29.90 1013 10 16 0.00 0.00
5:53 pm 17:53 Mostly Cloudy 99 37.2 56 13.3 24 24 VRB 6 9 29.89 1012 10 16 0.00 0.00
6:22 pm 18:22 Hazy 94 34.4 58 14.4 30 30 ESE 31 50 29.84 1010 2 3 0.00 0.00
6:24 pm 18:24 Hazy 90 32.2 60 15.6 37 37 ESE 40 65 29.86 1011 1 1 0.00 0.00
6:27 pm 18:27 Mostly Cloudy with Nearby Thunderstorms 88 31.1 60 15.6 39 39 ESE 39 63 29.87 1011 1 1 0.00 0.00
6:35 pm 18:35 Mostly Cloudy with Nearby Thunderstorms 85 29.4 62 16.7 46 46 E 35 56 29.89 1012 1 2 0.00 0.00
6:42 pm 18:42 Partly Cloudy with Nearby Thunderstorms 83 28.3 62 16.7 49 49 ESE 31 50 29.90 1013 3 5 0.00 0.00
6:53 pm 18:53 Partly Cloudy with Nearby Thunderstorms 80 26.7 63 17.2 56 56 SE 25 41 29.97 1015 5 8 0.00 0.00
7:00 pm 19:00 Partly Cloudy with Thunderstorms 80 26.7 63 17.2 56 56 SE 30 48 29.91 1013 8 13 0.00 0.00
7:15 pm 19:15 Mostly Cloudy 81 27.2 61 16.1 51 51 SE 20 31 29.91 1013 10 16 0.00 0.00
7:53 pm 19:53 Sunny 84 28.9 58 14.4 41 41 SSE 22 35 29.94 1014 10 16 0.00 0.00
8:53 pm 20:53 Sunny 85 29.4 56 13.3 37 37 SSE 8 13 29.92 1013 10 16 0.00 0.00
9:53 pm 21:53 Clear 84 28.9 57 13.9 40 40 SSE 9 15 29.94 1014 10 16 0.00 0.00
10:53 pm 22:53 Clear 81 27.2 60 15.6 49 49 S 16 26 29.97 1015 10 16 0.00 0.00
11:53 pm 23:53 Clear 80 26.7 62 16.7 54 54 SSE 13 20 29.98 1015 10 16 0.00 0.00

Powered by AerisWeather